EW5212 Weather Reports


time (UTC)temp
C
wind
direction
speed
KPH
gust
KPH
rain 1hr
cm
rain 24hr
cm
rain mn
cm
humidity
%
barometer
mb
20260902225517 28 0.0 0.0 0.00 0.00 0.00 87 1018.1
20260902224516 28 0.0 4.8 0.00 0.00 0.00 88 1017.7
20260902223516 28 90 1.6 6.4 0.00 0.00 0.00 86 1017.8
20260902222516 28 113 1.6 6.4 0.00 0.00 0.00 85 1018.5
20260902221516 28 0.0 1.6 0.00 0.00 0.00 85 1018.6
20260902220519 29 0.0 3.2 0.00 0.00 0.00 82 1018.1
20260902215516 30 0.0 3.2 0.00 0.00 0.00 81 1018.1
20260902214518 30 0.0 1.6 0.00 0.00 0.00 80 1018.1
20260902213516 31 68 1.6 8.0 0.00 0.00 0.00 77 1018.2
20260902212516 31 338 1.6 6.4 0.00 0.00 0.00 75 1018.0
20260902211516 31 338 1.6 4.8 0.00 0.00 0.00 75 1018.4
20260902210516 32 315 1.6 4.8 0.00 0.00 0.00 75 1017.9
20260902205516 32 293 3.2 6.4 0.00 0.00 0.00 76 1017.8
20260902204516 32 338 3.2 9.7 0.00 0.00 0.00 75 1018.2
20260902203516 33 0 1.6 4.8 0.00 0.00 0.00 72 1018.2
20260902202516 33 0.0 1.6 0.00 0.00 0.00 72 1017.9
20260902201516 33 338 1.6 3.2 0.00 0.00 0.00 71 1018.1
20260902200536 33 45 1.6 4.8 0.00 0.00 0.00 70 1018.2
20260902195516 34 45 1.6 3.2 0.00 0.00 0.00 70 1018.3
20260902194516 35 338 1.6 1.6 0.00 0.00 0.00 69 1017.9
20260902193516 35 0.0 3.2 0.00 0.00 0.00 66 1017.7
20260902192516 34 0.0 3.2 0.00 0.00 0.00 68 1017.8
20260902191516 34 0.0 1.6 0.00 0.00 0.00 68 1017.8
20260902190516 35 0.0 3.2 0.00 0.00 0.00 67 1017.9
20260902185515 34 0.0 4.8 0.00 0.00 0.00 67 1018.0
20260902184516 34 45 1.6 3.2 0.00 0.00 0.00 68 1018.2
20260902183516 35 0.0 1.6 0.00 0.00 0.00 68 1018.4
20260902182515 35 0.0 3.2 0.00 0.00 0.00 67 1018.4
20260902181515 35 0.0 3.2 0.00 0.00 0.00 67 1018.5
20260902180516 35 0.0 3.2 0.00 0.00 0.00 68 1018.6
20260902175516 34 338 1.6 4.8 0.00 0.00 0.00 67 1018.6
20260902174516 35 45 1.6 4.8 0.00 0.00 0.00 67 1018.7
20260902173516 34 338 1.6 3.2 0.00 0.00 0.00 67 1018.6
20260902172536 34 45 1.6 3.2 0.00 0.00 0.00 68 1018.5
20260902171516 34 45 1.6 4.8 0.00 0.00 0.00 67 1018.6
20260902170515 35 45 1.6 3.2 0.00 0.00 0.00 66 1018.6
20260902165515 34 45 1.6 3.2 0.00 0.00 0.00 67 1018.6
20260902164516 34 0.0 3.2 0.00 0.00 0.00 66 1018.7
20260902163516 34 45 1.6 6.4 0.00 0.00 0.00 65 1018.7
20260902162515 34 0.0 1.6 0.00 0.00 0.00 67 1018.7
20260902161536 34 45 1.6 3.2 0.00 0.00 0.00 68 1018.7
20260902160515 34 0.0 1.6 0.00 0.00 0.00 69 1019.0
20260902155515 33 0.0 3.2 0.00 0.00 0.00 70 1019.1
20260902154515 33 45 1.6 4.8 0.00 0.00 0.00 72 1019.1
20260902153515 33 0.0 3.2 0.00 0.00 0.00 70 1019.0
20260902152515 33 0.0 1.6 0.00 0.00 0.00 71 1019.0
20260902151515 32 0.0 1.6 0.00 0.00 0.00 72 1019.1
20260902150515 32 0.0 3.2 0.00 0.00 0.00 72 1019.2
20260902145515 32 0.0 1.6 0.00 0.00 0.00 74 1019.2
20260902144516 31 45 1.6 3.2 0.00 0.00 0.00 75 1019.3
20260902143519 32 0.0 0.0 0.00 0.00 0.00 76 1019.4
20260902142515 31 0.0 0.0 0.00 0.00 0.00 78 1019.3
20260902141515 31 0.0 0.0 0.00 0.00 0.00 75 1019.1
20260902140555 31 0.0 0.0 0.00 0.00 0.00 78 1019.1
20260902135516 31 0.0 0.0 0.00 0.00 0.00 79 1019.0
20260902134535 30 0.0 0.0 0.00 0.00 0.00 81 1018.9
20260902133535 29 0.0 0.0 0.00 0.00 0.00 84 1018.9
20260902132515 28 0.0 0.0 0.00 0.00 0.00 86 1018.8
20260902131515 27 0.0 1.6 0.00 0.00 0.00 88 1018.8
20260902130515 26 0.0 0.0 0.00 0.00 0.00 97 1018.8
20260902125515 24 0.0 0.0 0.00 0.00 0.00 100 1018.7
20260902124517 23 0.0 0.0 0.00 0.00 0.00 100 1018.6
20260902123515 23 0.0 0.0 0.00 0.00 0.00 100 1018.6
20260902122515 23 0.0 0.0 0.00 0.00 0.00 100 1018.5
20260902121515 22 0.0 0.0 0.00 0.00 0.00 100 1018.6
20260902120535 22 0.0 0.0 0.00 0.00 0.00 100 1018.5
20260902115517 22 0.0 0.0 0.00 0.00 0.00 100 1018.5
20260902114515 22 0.0 0.0 0.00 0.00 0.00 100 1018.5
20260902113515 22 0.0 0.0 0.00 0.00 0.00 100 1018.5
20260902112555 22 0.0 0.0 0.00 0.00 0.00 100 1018.5
20260902111515 22 0.0 0.0 0.00 0.00 0.00 100 1018.5
20260902110535 22 0.0 0.0 0.00 0.00 0.00 100 1018.5
20260902105515 22 0.0 0.0 0.00 0.00 0.00 100 1018.5
20260902104535 22 0.0 0.0 0.00 0.00 0.00 100 1018.3
20260902103515 23 0.0 0.0 0.00 0.00 0.00 100 1018.3
20260902102536 23 0.0 0.0 0.00 0.00 0.00 100 1018.4
20260902101515 23 0.0 0.0 0.00 0.00 0.00 100 1018.2
20260902100555 23 0.0 0.0 0.00 0.00 0.00 100 1018.1
20260902095535 22 0.0 0.0 0.00 0.00 0.00 100 1017.9
20260902094515 22 0.0 0.0 0.00 0.00 0.00 100 1018.0
20260902093517 22 0.0 0.0 0.00 0.00 0.00 100 1018.0
20260902092517 22 0.0 0.0 0.00 0.00 0.00 100 1017.9
20260902091517 22 0.0 0.0 0.00 0.00 0.00 100 1017.9
20260902090517 22 0.0 0.0 0.00 0.00 0.00 100 1017.9
20260902085517 22 0.0 0.0 0.00 0.00 0.00 100 1017.9
20260902084517 22 0.0 0.0 0.00 0.00 0.00 100 1017.8
20260902083518 22 0.0 0.0 0.00 0.00 0.00 100 1017.8
20260902082517 22 0.0 0.0 0.00 0.00 0.00 100 1017.9
20260902081537 22 0.0 0.0 0.00 0.00 0.00 100 1017.7
20260902080517 22 0.0 0.0 0.00 0.00 0.00 100 1017.7
20260902075517 22 0.0 0.0 0.00 0.00 0.00 99 1017.7
20260902074537 22 0.0 0.0 0.00 0.00 0.00 100 1017.7
20260902073517 22 0.0 0.0 0.00 0.00 0.00 100 1017.7
20260902072517 22 0.0 0.0 0.00 0.00 0.00 99 1017.8
20260902071558 22 0.0 0.0 0.00 0.00 0.00 99 1017.7
20260902070517 22 0.0 0.0 0.00 0.00 0.00 99 1017.7
20260902065517 22 0.0 0.0 0.00 0.00 0.00 99 1017.7
20260902064517 22 0.0 0.0 0.00 0.00 0.00 99 1017.6
20260902063516 22 0.0 0.0 0.00 0.00 0.00 99 1017.5
20260902062517 22 0.0 0.0 0.00 0.00 0.00 99 1017.6
20260902061518 22 0.0 0.0 0.00 0.00 0.00 99 1017.6
20260902060517 22 0.0 0.0 0.00 0.00 0.00 99 1017.7
20260902055516 22 0.0 0.0 0.00 0.00 0.00 99 1017.4
20260902054517 22 0.0 0.0 0.00 0.00 0.00 98 1017.5
20260902053537 22 0.0 0.0 0.00 0.00 0.00 99 1017.5
20260902052537 22 0.0 0.0 0.00 0.00 0.00 98 1017.5
20260902051516 23 0.0 0.0 0.00 0.00 0.00 98 1017.6
20260902050522 23 0.0 0.0 0.00 0.00 0.00 98 1017.7
20260902045517 23 0.0 0.0 0.00 0.00 0.00 98 1017.6
20260902044536 23 0.0 0.0 0.00 0.00 0.00 98 1017.5
20260902043517 23 0.0 0.0 0.00 0.00 0.00 98 1017.3
20260902042517 23 0.0 0.0 0.00 0.00 0.00 98 1017.4
20260902041537 23 0.0 0.0 0.00 0.00 0.00 98 1017.3
20260902040516 23 0.0 0.0 0.00 0.00 0.00 98 1017.2
20260902035517 23 0.0 0.0 0.00 0.00 0.00 98 1017.2
20260902034537 23 0.0 0.0 0.00 0.00 0.00 98 1017.0
20260902033516 23 0.0 0.0 0.00 0.00 0.00 97 1016.8
20260902032517 23 0.0 0.0 0.00 0.00 0.00 97 1016.7
20260902031516 23 0.0 0.0 0.00 0.00 0.00 97 1016.7
20260902030516 24 0.0 0.0 0.00 0.00 0.00 97 1016.8
20260902025517 24 0.0 0.0 0.00 0.00 0.00 97 1016.8
20260902024517 24 0.0 0.0 0.00 0.00 0.00 97 1016.8
20260902023516 24 0.0 0.0 0.00 0.00 0.00 96 1016.7
20260902022517 24 0.0 0.0 0.00 0.00 0.00 96 1016.9
20260902021516 24 0.0 0.0 0.00 0.00 0.00 96 1016.9
20260902020516 24 0.0 0.0 0.00 0.00 0.00 95 1016.8
20260902015516 25 0.0 0.0 0.00 0.00 0.00 95 1016.7
20260902014536 25 0.0 0.0 0.00 0.00 0.00 95 1016.5
20260902013517 25 0.0 0.0 0.00 0.00 0.00 95 1016.3
20260902012517 25 0.0 0.0 0.00 0.00 0.00 95 1016.1
20260902011516 25 0.0 0.0 0.00 0.00 0.00 94 1016.0
20260902010516 25 0.0 0.0 0.00 0.00 0.00 94 1015.9
20260902005516 26 0.0 0.0 0.00 0.00 0.00 93 1015.9
20260902004536 26 0.0 0.0 0.00 0.00 0.00 92 1015.8
20260902003517 26 0.0 0.0 0.00 0.00 0.00 91 1015.6
20260902002516 26 0.0 0.0 0.00 0.00 0.00 90 1015.6
20260902001516 26 0.0 0.0 0.00 0.00 0.00 89 1015.6
20260902000516 27 0.0 0.0 0.00 0.00 0.00 89 1015.6
20260901235517 27 0.0 0.0 0.00 0.00 0.00 87 1015.6
20260901234516 28 0.0 0.0 0.00 0.00 0.00 86 1015.7
20260901233536 28 0.0 0.0 0.00 0.00 0.00 83 1015.6
20260901232536 29 0.0 0.0 0.00 0.00 0.00 83 1015.7
20260901231516 30 0.0 0.0 0.00 0.00 0.00 80 1015.7
20260901230516 31 0.0 1.6 0.00 0.00 0.00 78 1015.8